Location: Berg
(47.2344°N, 9.5296°E)
Time: 12:39:54
(UTC+00:00)

Helios 1A Rocket - Pass Details

Date: 24 January 2021
Orbit: 562 x 586 km, 98.3° (Epoch: 06 March)

Event Time Altitude Azimuth Distance (km) Brightness Sun altitude
Rises 17:12:46 0° 133° (SE) 2,804 6.1 -10.4°
Reaches altitude 10° 17:15:11 10° 120° (ESE) 1,910 5.2 -10.7°
Maximum altitude 17:18:35 25° 65° (ENE) 1,200 3.9 -11.3°
Drops below altitude 10° 17:22:00 10° 10° (N) 1,921 5.3 -11.9°
Sets 17:24:26 0° 357° (N) 2,825 6.3 -12.3°
